Preview of NWS' New Version of Forecast
This preview is not operational and should not be used for support decisions.

Regional Weather Roundup (RWR)

Issued by National Weather Service (NWS)

                            
000
ASUS42 KTBW 210316
RWRFL 
FLORIDA REGIONAL WEATHER ROUNDUP
NATIONAL WEATHER SERVICE TAMPA BAY RUSKIN FL
1100 PM EDT MON MAY 20 2019

NOTE: "FAIR" INDICATES FEW OR NO CLOUDS BELOW 12,000 FEET WITH NO
SIGNIFICANT WEATHER AND/OR OBSTRUCTIONS TO VISIBILITY.

FLZ001>010-012>015-112-114-115-210400-
PANHANDLE FLORIDA
  
CITY           SKY/WX    TMP DP  RH WIND       PRES   REMARKS
PENSACOLA      FAIR      78  75  90 S5        29.95F                  
PENSACOLA NAS  FAIR      77  74  90 S6        29.94F                  
MILTON NAS     FAIR      74  72  93 SW3       29.96S                  
CRESTVIEW      FAIR      75  70  84 S3        29.97F                  
DUKE FIELD     FAIR      75  73  92 CALM      29.95F                  
VALPARAISO     FAIR      79  73  83 SW5       29.95F                  
MARY ESTHER    PTCLDY    78  74  86 CALM      29.97S                  
PANAMA CITY    FAIR      76  71  85 CALM      29.97S                  
TYNDALL AFB    FAIR      77  70  80 W3        29.96F                  
APALACHICOLA   FAIR      70  62  76 CALM      29.97S                  

STATION/POSITION SKY/WX   TEMP    WIND        PRES    WAVE   SWELL
                          AIR SEA DIR/SP/G            HT/PER HT/PER
                          (F)     (DEG/KT/KT) (MB)    (FT/S) (FT/S)
30.1N   87.6W                                   N/A     2/ 6
29.2N   88.2W                     150/ 12/ 14 1014.7S   2/ 6   2/ 6
PANAMA CITY BEAC           78 82  220/  8/  9 1015.5R
TOWER C          NOT AVBL

$$
FLZ011-016>038-118-127-128-134-139-239-210400-
NORTH FLORIDA
  
CITY           SKY/WX    TMP DP  RH WIND       PRES   REMARKS
MARIANNA       FAIR      77  67  71 SW7       29.96S                  
TALLAHASSEE    FAIR      76  63  64 CALM      29.97S                  
PERRY          FAIR      73  62  70 CALM      29.98S                  
LIVE OAK       PTCLDY    75  61  60 CALM      29.97R                  
CROSS CITY     FAIR      71  58  63 CALM      29.97S                  
GAINESVILLE    FAIR      79  68  69 E8        30.01R                  
WILLISTON      CLOUDY    75  60  59 E3        29.99R                  
PALATKA        CLOUDY   N/A N/A N/A S6        29.99R                  
MAYPORT NAS    FAIR      78  70  76 S12       29.98S                  
JACKSONVILLE   FAIR      75  69  81 S8        29.97S                  
JAX NAS        FAIR      80  68  66 SE12      29.99R                  
JAX CECIL      CLEAR     77  66  69 SE7       29.98R                  
FERNANDINA BEA FAIR      77  71  81 S8        29.98S                  
ST AUGUSTINE   FAIR      77  72  84 S9        30.00R                  
PALM COAST     FAIR      74  70  87 SE3       30.00R                  

STATION/POSITION SKY/WX   TEMP    WIND        PRES    WAVE   SWELL
                          AIR SEA DIR/SP/G            HT/PER HT/PER
                          (F)     (DEG/KT/KT) (MB)    (FT/S) (FT/S)
SHELL POINT      NOT AVBL
KEATON BEACH               82     290/  6/  7 1014.9R
CEDAR KEY                  80     330/  4/  5 1014.9R
FERNANDINA                        160/  7/ 11   N/A
30.7N   81.3W                 79                N/A     3/ 3
MAYPORT                    78 80  160/  5/  8 1015.6R
31.4N   80.9W              78 78  190/ 14/ 16 1014.8R   3/ 4   2/15
ST AUGUSTINE               78 82  160/ 15/ 17 1015.7R

$$
FLZ040-043>046-052-053-057-058-063-144-210400-
INTERIOR CENTRAL FLORIDA
  
CITY           SKY/WX    TMP DP  RH WIND       PRES   REMARKS
OCALA          CLOUDY    76  67  73 E7        30.00R                  
LEESBURG       FAIR      80  69  69 SE5       30.00R                  
SANFORD        FAIR      77  70  79 SE7       29.99R                  
ORLANDO EXEC   FAIR      77  70  79 SE8       30.00R                  
ORLANDO INTL   FAIR      76  69  79 SE7       30.00R                  
KISSIMMEE      FAIR      77  71  82 SE7       30.00R                  
WINTER HAVEN   FAIR      79  70  74 SE5       30.01R                  
BARTOW         FAIR      75  70  83 SE5       29.99R                  
SEBRING        FAIR      77  70  77 E7        30.00R                  
OKEECHOBEE     FAIR      72  68  88 E3        29.99R                  

$$
FLZ041-047-054-059-064-141-147-210400-
EAST CENTRAL FLORIDA
  
CITY           SKY/WX    TMP DP  RH WIND       PRES   REMARKS
DAYTONA BEACH  FAIR      76  72  87 S5        30.00R                  
DELAND         FAIR      75  70  83 SE6       30.00R                  
JFK SPACE CTR  FAIR      75  70  85 S5        29.99R                  
CAPE CANAVERAL FAIR      76  61  59 SE9       29.98S                  
PATRICK AFB    FAIR      78  73  84 SE13      29.99R                  
MELBOURNE      FAIR      80  70  71 SE9       29.99R                  
VERO BEACH     FAIR      78  69  73 SE13      29.99S                  
FT PIERCE      FAIR      78  68  71 SE13      29.99S                  
STUART         FAIR      77  68  73 SE8       30.00R                  

STATION/POSITION SKY/WX   TEMP    WIND        PRES    WAVE   SWELL
                          AIR SEA DIR/SP/G            HT/PER HT/PER
                          (F)     (DEG/KT/KT) (MB)    (FT/S) (FT/S)
28.5N   80.2W              79     130/ 12/ 14 1016.1
28.9N   78.5W              77 79  130/  8/ 10 1016.6S   2/ 6   2/ 6
TRIDENT PIER               77 82  130/  7/ 12 1017.1R
28.4N   80.5W                 80                N/A     2/ 7
27.5N   80.2W                 80                N/A     2/ 6

$$
FLZ050-056-061-142-242-148-248-149-249-151-251-155-255-
160-260-210400-
WEST CENTRAL FLORIDA
  
CITY           SKY/WX    TMP DP  RH WIND       PRES   REMARKS
CRYSTAL RIVER  FAIR      73  64  73 CALM      29.98R                  
INVERNESS      MOCLDY    77  72  83 E3        30.00R                  
BROOKSVILLE    FAIR      75  67  76 E5        30.00R                  
CLEARWATER AIR FAIR      79  68  69 E5        29.98R                  
ST PETE CLEARW FAIR      81  66  60 NE8       29.98R                  
TAMPA INTL     FAIR      82  65  56 E5        29.99R                  
TAMPA EXEC     CLOUDY    73  70  88 CALM      29.99S                  
PLANT CITY     CLOUDY    77  70  78 CALM      30.02R                  
MACDILL AFB    MOCLDY    80  66  63 SE8       29.99R                  
PETER O KNIGHT CLOUDY    81  70  69 E8        29.99R                  
ST PETERSBURG    N/A    N/A N/A N/A MISG        N/A                   
SARASOTA       FAIR      78  69  73 SE7       29.96R                  
VENICE         CLOUDY    79  70  73 E7        29.99R                  

STATION/POSITION SKY/WX   TEMP    WIND        PRES    WAVE   SWELL
                          AIR SEA DIR/SP/G            HT/PER HT/PER
                          (F)     (DEG/KT/KT) (MB)    (FT/S) (FT/S)
27.3N   84.2W                 80                N/A     1/ 7
CLEARWATER BEACH           81 86  340/  9/ 10 1015.1R
MIDDLE TAMPA BAY           83      40/ 13/ 14 1015.3R
VENICE                     79 82  110/  6/  8 1015.2R

$$
FLZ066-069-070-075>078-162-262-165-265-210400-
SOUTHWEST FLORIDA AND KEYS
  
CITY           SKY/WX    TMP DP  RH WIND       PRES   REMARKS
PUNTA GORDA    CLOUDY    75  71  87 NE3       30.00R                  
FT MYERS       MOCLDY    76  72  87 S3        29.98R                  
SOUTHWEST INTL FAIR      78  69  73 SE6       29.98S                  
NAPLES         FAIR      76  73  91 SE5       29.98S                  
MARCO ISLAND   MOCLDY    77  72  84 S8        29.99S                  
IMMOKALEE      CLOUDY    75  70  83 S3        29.98R                  
MARATHON       CLOUDY    83  71  67 SE8       29.97R                  
KEY WEST NAS   FAIR      82  71  69 SE8       29.97R                  
KEY WEST INTL  FAIR      81  71  71 SE9       29.98R                  

STATION/POSITION SKY/WX   TEMP    WIND        PRES    WAVE   SWELL
                          AIR SEA DIR/SP/G            HT/PER HT/PER
                          (F)     (DEG/KT/KT) (MB)    (FT/S) (FT/S)
NAPLES                     81 85              1015.5R
DRY TORTUGAS               81      40/  3/  4 1015.2R
SAND KEY                   81                 1015.1R
SOMBRERO KEY               81                 1014.5R

$$
FLZ067-068-071>074-168-172>174-210400-
SOUTHEAST FLORIDA 
  
CITY           SKY/WX    TMP DP  RH WIND       PRES   REMARKS
W PALM BEACH   FAIR      80  68  66 SE9       30.00R                  
BOCA RATON     PTCLDY    79  70  73 SE12      29.99R                  
FT LAUDER-EXEC FAIR      80  68  66 E12       29.99R                  
FT LAUDERDALE  FAIR      80  69  69 E12       29.98R                  
POMPANO BEACH  FAIR      81  68  64 E12       29.99R                  
PEMBROKE PINES FAIR      79  70  74 E10       30.00R                  
OPA LOCKA      FAIR      79  69  71 E7        29.99R                  
MIAMI          FAIR      81  71  71 E7        29.99R                  
WEST KENDALL   FAIR      79  69  71 E7        29.99R                  
HOMESTEAD      FAIR      79  70  74 E3        29.98R                  

STATION/POSITION SKY/WX   TEMP    WIND        PRES    WAVE   SWELL
                          AIR SEA DIR/SP/G            HT/PER HT/PER
                          (F)     (DEG/KT/KT) (MB)    (FT/S) (FT/S)
PORT EVERGLADES            81     110/  4/  9 1015.6
VIRGINIA KEY               81 85   80/ 10/ 13 1014.9R
LAKE WORTH                 80 82              1016.7R
SETTLEMENT POINT           79      90/ 11/ 12 1016.2R

$$